Location: Unspecified
(17.6330°N, 0.0000°E)
Time: 22:49:25
(UTC+00:00)

S-56A Canister/Altair - Pass Details

Date: 30 June 2019
Orbit: 633 x 2499 km, 38.9° (Epoch: 13 October)

Event Time Altitude Azimuth Distance (km) Brightness Sun altitude
Rises 10:56:28 0° 229° (SW) 6,077 11.9 73.3°
Reaches altitude 10° 11:00:21 10° 229° (SW) 5,134 11.7 74.2°
Maximum altitude 11:15:40 87° 141° (SE) 2,364 12.2 77.5°
Drops below altitude 10° 11:28:17 10° 54° (NE) 4,321 11.7 80.0°
Sets 11:31:16 0° 54° (NE) 5,104 11.9 80.6°
